• In Czech Republic
  • List of Countries
  • For 7 days
  • Water Temperature
  • Satellite Maps
  • Weather Map
  • Weather Widgets
  • user-avatar
    Login

    Hourly Weather San Miguel de Tucumán

    Today, 17 October, Wednesday

    Time Temperature Precipitation Wind Pressure Humidity
    00:00 +26°C° 0 mm 2 mps 712 mmHg 54%
    01:00 +26°C° 0 mm 2 mps 712 mmHg 54%
    02:00 +25°C° 0 mm 2 mps 712 mmHg 59%
    03:00 +25°C° 0 mm 2 mps 712 mmHg 59%
    04:00 +24°C° 0 mm 1 mps 712 mmHg 58%
    05:00 +24°C° 0 mm 1 mps 713 mmHg 58%
    06:00 +26°C° 0 mm 1 mps 713 mmHg 54%
    07:00 +28°C° 0 mm 1 mps 714 mmHg 50%
    08:00 +30°C° 0 mm 1 mps 714 mmHg 46%
    09:00 +31°C° 0 mm 1 mps 714 mmHg 44%
    10:00 +34°C° 0 mm 2 mps 714 mmHg 43%
    11:00 +35°C° 0 mm 2 mps 714 mmHg 42%
    12:00 +36°C° 0 mm 2 mps 714 mmHg 38%
    13:00 +37°C° 0 mm 3 mps 713 mmHg 34%
    14:00 +39°C° 0 mm 3 mps 712 mmHg 31%
    15:00 +38°C° 0.1 mm 3 mps 712 mmHg 32%
    16:00 +38°C° 0.1 mm 3 mps 712 mmHg 32%
    17:00 +37°C° 0.1 mm 3 mps 712 mmHg 33%
    18:00 +35°C° 0.2 mm 2 mps 712 mmHg 39%
    19:00 +32°C° 0.2 mm 2 mps 713 mmHg 44%
    20:00 +30°C° 0.2 mm 1 mps 714 mmHg 49%
    21:00 +29°C° 0.7 mm 1 mps 714 mmHg 56%
    22:00 +28°C° 0.7 mm 1 mps 715 mmHg 62%
    23:00 +26°C° 0.7 mm 1 mps 715 mmHg 69%

    Tomorrow, 18 October, Thursday

    Time Temperature Precipitation Wind Pressure Humidity
    00:00 +26°C° 0 mm 1 mps 715 mmHg 70%
    01:00 +26°C° 0 mm 1 mps 715 mmHg 72%
    02:00 +25°C° 0 mm 1 mps 715 mmHg 73%
    03:00 +25°C° 0.1 mm 1 mps 715 mmHg 74%
    04:00 +25°C° 0.1 mm 1 mps 715 mmHg 75%
    05:00 +24°C° 0.1 mm 1 mps 715 mmHg 76%
    06:00 +26°C° 0 mm 1 mps 716 mmHg 70%
    07:00 +28°C° 0 mm 1 mps 716 mmHg 63%
    08:00 +30°C° 0 mm 1 mps 717 mmHg 57%
    09:00 +32°C° 0 mm 2 mps 717 mmHg 52%
    10:00 +35°C° 0 mm 2 mps 717 mmHg 48%
    11:00 +36°C° 0 mm 3 mps 718 mmHg 43%
    12:00 +37°C° 0.3 mm 3 mps 717 mmHg 43%
    13:00 +37°C° 0.3 mm 3 mps 717 mmHg 44%
    14:00 +37°C° 0.3 mm 4 mps 716 mmHg 45%
    15:00 +36°C° 2.8 mm 3 mps 716 mmHg 51%
    16:00 +34°C° 2.8 mm 3 mps 716 mmHg 57%
    17:00 +32°C° 2.8 mm 2 mps 716 mmHg 63%
    18:00 +30°C° 5.2 mm 2 mps 717 mmHg 70%
    19:00 +29°C° 5.2 mm 2 mps 717 mmHg 76%
    20:00 +27°C° 5.2 mm 2 mps 718 mmHg 82%
    21:00 +27°C° 3.1 mm 2 mps 719 mmHg 83%
    22:00 +26°C° 3.1 mm 2 mps 719 mmHg 83%
    23:00 +26°C° 3.1 mm 2 mps 720 mmHg 84%

    Day after tomorrow, 19 October, Friday

    Time Temperature Precipitation Wind Pressure Humidity
    00:00 +25°C° 0.9 mm 1 mps 720 mmHg 84%
    01:00 +25°C° 0.9 mm 1 mps 720 mmHg 84%
    02:00 +25°C° 0.9 mm 1 mps 719 mmHg 84%
    03:00 +24°C° 0 mm 1 mps 719 mmHg 84%
    04:00 +24°C° 0 mm 1 mps 720 mmHg 83%
    05:00 +24°C° 0 mm 1 mps 720 mmHg 83%
    06:00 +25°C° 0 mm 1 mps 720 mmHg 80%
    07:00 +26°C° 0 mm 1 mps 721 mmHg 77%
    08:00 +27°C° 0 mm 2 mps 721 mmHg 74%
    09:00 +28°C° 0.2 mm 2 mps 721 mmHg 71%
    10:00 +29°C° 0.2 mm 2 mps 721 mmHg 68%
    11:00 +30°C° 0.2 mm 2 mps 721 mmHg 65%
    12:00 +30°C° 0.9 mm 2 mps 720 mmHg 64%
    13:00 +31°C° 0.9 mm 2 mps 719 mmHg 64%
    14:00 +31°C° 0.9 mm 2 mps 718 mmHg 63%
    15:00 +30°C° 1.1 mm 2 mps 718 mmHg 67%
    16:00 +29°C° 1.1 mm 2 mps 717 mmHg 71%
    17:00 +29°C° 1.1 mm 2 mps 717 mmHg 75%
    18:00 +27°C° 1.1 mm 2 mps 718 mmHg 80%
    19:00 +26°C° 1.1 mm 1 mps 718 mmHg 85%
    20:00 +25°C° 1.1 mm 1 mps 719 mmHg 90%
    21:00 +25°C° 0.5 mm 1 mps 719 mmHg 91%
    22:00 +25°C° 0.5 mm 1 mps 719 mmHg 91%
    23:00 +25°C° 0.5 mm 1 mps 719 mmHg 92%

    20 October, Saturday

    Time Temperature Precipitation Wind Pressure Humidity
    00:00 +24°C° 0 mm 1 mps 719 mmHg 92%
    01:00 +24°C° 0 mm 1 mps 718 mmHg 93%
    02:00 +24°C° 0 mm 1 mps 718 mmHg 93%
    03:00 +24°C° 0 mm 1 mps 718 mmHg 93%
    04:00 +24°C° 0 mm 1 mps 718 mmHg 93%
    05:00 +24°C° 0 mm 1 mps 718 mmHg 93%
    06:00 +25°C° 0 mm 1 mps 718 mmHg 89%
    07:00 +26°C° 0 mm 1 mps 718 mmHg 85%
    08:00 +26°C° 0 mm 1 mps 719 mmHg 82%
    09:00 +28°C° 0.2 mm 2 mps 718 mmHg 78%
    10:00 +29°C° 0.2 mm 2 mps 718 mmHg 74%
    11:00 +30°C° 0.2 mm 2 mps 718 mmHg 70%
    12:00 +30°C° 1 mm 2 mps 717 mmHg 70%
    13:00 +30°C° 1 mm 2 mps 716 mmHg 70%
    14:00 +30°C° 1 mm 2 mps 716 mmHg 71%
    15:00 +30°C° 1 mm 2 mps 715 mmHg 73%
    16:00 +29°C° 1 mm 2 mps 715 mmHg 74%
    17:00 +29°C° 1 mm 1 mps 715 mmHg 76%
    18:00 +28°C° 1.7 mm 1 mps 715 mmHg 81%
    19:00 +27°C° 1.7 mm 1 mps 716 mmHg 85%
    20:00 +26°C° 1.7 mm 1 mps 716 mmHg 90%
    21:00 +25°C° 1.2 mm 1 mps 717 mmHg 90%
    22:00 +25°C° 1.2 mm 1 mps 717 mmHg 91%
    23:00 +25°C° 1.2 mm 1 mps 717 mmHg 92%

    21 October, Sunday

    Time Temperature Precipitation Wind Pressure Humidity
    00:00 +25°C° 0.5 mm 1 mps 717 mmHg 92%
    01:00 +24°C° 0.5 mm 1 mps 717 mmHg 92%
    02:00 +24°C° 0.5 mm 1 mps 716 mmHg 92%
    03:00 +24°C° 0.1 mm 1 mps 716 mmHg 91%
    04:00 +24°C° 0.1 mm 1 mps 716 mmHg 91%
    05:00 +24°C° 0.1 mm 1 mps 716 mmHg 91%
    06:00 +25°C° 0.1 mm 1 mps 717 mmHg 88%
    07:00 +25°C° 0.1 mm 1 mps 717 mmHg 85%
    08:00 +26°C° 0.1 mm 1 mps 718 mmHg 82%
    09:00 +27°C° 0.1 mm 1 mps 717 mmHg 79%
    10:00 +28°C° 0.1 mm 2 mps 717 mmHg 75%
    11:00 +29°C° 0.1 mm 2 mps 717 mmHg 72%
    12:00 +30°C° 0.2 mm 2 mps 716 mmHg 71%
    13:00 +30°C° 0.2 mm 2 mps 715 mmHg 70%
    14:00 +30°C° 0.2 mm 2 mps 715 mmHg 70%
    15:00 +30°C° 0.9 mm 2 mps 715 mmHg 72%
    16:00 +30°C° 0.9 mm 2 mps 715 mmHg 74%
    17:00 +29°C° 0.9 mm 2 mps 714 mmHg 76%
    18:00 +28°C° 1.4 mm 1 mps 715 mmHg 80%
    19:00 +27°C° 1.4 mm 1 mps 716 mmHg 85%
    20:00 +26°C° 1.4 mm 1 mps 716 mmHg 90%
    21:00 +25°C° 0.8 mm 1 mps 716 mmHg 90%
    22:00 +25°C° 0.8 mm 1 mps 717 mmHg 91%
    23:00 +25°C° 0.8 mm 1 mps 717 mmHg 92%

    22 October, Monday

    Time Temperature Precipitation Wind Pressure Humidity
    00:00 +25°C° 0 mm 1 mps 717 mmHg 92%
    01:00 +24°C° 0 mm 1 mps 716 mmHg 92%
    02:00 +24°C° 0 mm 1 mps 716 mmHg 92%
    03:00 +24°C° 0 mm 1 mps 716 mmHg 92%
    04:00 +24°C° 0 mm 1 mps 716 mmHg 91%
    05:00 +22°C° 0 mm 0 mps 716 mmHg 91%
    06:00 +25°C° 0.3 mm 1 mps 717 mmHg 88%
    07:00 +26°C° 0.3 mm 1 mps 717 mmHg 85%
    08:00 +27°C° 0.3 mm 1 mps 718 mmHg 83%
    09:00 +28°C° 0.8 mm 2 mps 717 mmHg 77%
    10:00 +29°C° 0.8 mm 2 mps 717 mmHg 72%
    11:00 +30°C° 0.8 mm 2 mps 717 mmHg 67%
    12:00 +30°C° 1.1 mm 2 mps 716 mmHg 68%
    13:00 +30°C° 1.1 mm 2 mps 715 mmHg 70%
    14:00 +30°C° 1.1 mm 2 mps 715 mmHg 72%
    15:00 +29°C° 1 mm 2 mps 715 mmHg 75%
    16:00 +28°C° 1 mm 2 mps 714 mmHg 78%
    17:00 +28°C° 1 mm 2 mps 714 mmHg 82%
    18:00 +27°C° 1 mm 2 mps 715 mmHg 85%
    19:00 +26°C° 1 mm 2 mps 716 mmHg 89%
    20:00 +25°C° 1 mm 2 mps 716 mmHg 92%
    21:00 +25°C° 0.4 mm 2 mps 717 mmHg 92%
    22:00 +25°C° 0.4 mm 2 mps 717 mmHg 93%
    23:00 +24°C° 0.4 mm 2 mps 717 mmHg 93%
    Show more